,,Stat6,,Stat2,,Stat8,,Stat9,,Stat10,,Wind1,,Wind1,
time,status,PA1M_AVG,status,PR1M_SUM,status,RH1M_AVG,status,SR1M_AVG,status,TA1M_AVG,status,W1dAve1m,status,W1sAve1m,
2004-11-06, 00:00:00,VALID,918.06,VALID,0,VALID,100,VALID,-0.0339617,VALID,19.1897,VALID,127,VALID,0.862459,
2004-11-06, 00:01:00,VALID,918.025,VALID,0,VALID,100,VALID,-0.0339617,VALID,19.1828,VALID,127,VALID,0.915179,
2004-11-06, 00:02:00,VALID,917.998,VALID,0,VALID,100,VALID,0,VALID,19.1862,VALID,128,VALID,0.932478,
2004-11-06, 00:03:00,VALID,917.979,VALID,0,VALID,100,VALID,0,VALID,19.189,VALID,127,VALID,0.854048,
2004-11-06, 00:04:00,VALID,917.955,VALID,0,VALID,100,VALID,-0.0169808,VALID,19.1892,VALID,134,VALID,0.900152,
2004-11-06, 00:05:00,VALID,917.933,VALID,0,VALID,100,VALID,0,VALID,19.1855,VALID,126,VALID,1.09938,
2004-11-06, 00:06:00,VALID,917.928,VALID,0,VALID,100,VALID,-0.0169808,VALID,19.1957,VALID,125,VALID,0.773628,
2004-11-06, 00:07:00,VALID,917.921,VALID,0,VALID,100,VALID,0,VALID,19.1962,VALID,133,VALID,0.856399,
2004-11-06, 00:08:00,VALID,917.909,VALID,0,VALID,100,VALID,-0.0339617,VALID,19.1768,VALID,141,VALID,1.1935,
2004-11-06, 00:09:00,VALID,917.911,VALID,0,VALID,100,VALID,-0.0169808,VALID,19.1728,VALID,135,VALID,1.07374,
2004-11-06, 00:10:00,VALID,917.922,VALID,0,VALID,100,VALID,-0.0339617,VALID,19.1798,VALID,130,VALID,0.708939,
2004-11-06, 00:11:00,VALID,917.931,VALID,0,VALID,100,VALID,-0.0339617,VALID,19.1634,VALID,118,VALID,0.756359,
2004-11-06, 00:12:00,VALID,917.957,VALID,0,VALID,100,VALID,-0.0169808,VALID,19.1468,VALID,103,VALID,0.717188,
2004-11-06, 00:13:00,VALID,917.98,VALID,0,VALID,100,VALID,0,VALID,19.1507,VALID,107,VALID,0.699023,
2004-11-06, 00:14:00,VALID,917.998,VALID,0,VALID,100,VALID,-0.0169808,VALID,19.1346,VALID,106,VALID,0.887576,
2004-11-06, 00:15:00,VALID,918.024,VALID,0,VALID,100,VALID,0,VALID,19.144,VALID,113,VALID,0.732244,
2004-11-06, 00:16:00,VALID,918.033,VALID,0,VALID,100,VALID,0,VALID,19.1539,VALID,128,VALID,0.68968,
2004-11-06, 00:17:00,VALID,918.046,VALID,0,VALID,100,VALID,0,VALID,19.1373,VALID,124,VALID,0.813565,
2004-11-06, 00:18:00,VALID,918.064,VALID,0,VALID,100,VALID,0,VALID,19.1408,VALID,116,VALID,0.722656,
2004-11-06, 00:19:00,VALID,918.065,VALID,0,VALID,100,VALID,0.0169808,VALID,19.1472,VALID,121,VALID,0.701758,
2004-11-06, 00:20:00,VALID,918.067,VALID,0,VALID,100,VALID,0,VALID,19.1373,VALID,129,VALID,0.855097,
2004-11-06, 00:21:00,VALID,918.065,VALID,0,VALID,100,VALID,0,VALID,19.1276,VALID,123,VALID,0.772711,
2004-11-06, 00:22:00,VALID,918.05,VALID,0,VALID,100,VALID,0,VALID,19.1378,VALID,122,VALID,0.860137,
2004-11-06, 00:23:00,VALID,918.06,VALID,0,VALID,100,VALID,0,VALID,19.1182,VALID,124,VALID,0.895597,
2004-11-06, 00:24:00,VALID,918.051,VALID,0,VALID,100,VALID,-0.0169808,VALID,19.1112,VALID,127,VALID,1.16332,
2004-11-06, 00:25:00,VALID,918.054,VALID,0,VALID,100,VALID,0.0169808,VALID,19.1313,VALID,118,VALID,0.971608,
2004-11-06, 00:26:00,VALID,918.04,VALID,0,VALID,100,VALID,0,VALID,19.1279,VALID,125,VALID,0.980841,
2004-11-06, 00:27:00,VALID,918.043,VALID,0,VALID,100,VALID,0,VALID,19.1179,VALID,121,VALID,0.696403,
2004-11-06, 00:28:00,VALID,918.039,VALID,0,VALID,100,VALID,0,VALID,19.1147,VALID,116,VALID,0.981399,
2004-11-06, 00:29:00,VALID,918.042,VALID,0,VALID,100,VALID,0,VALID,19.1212,VALID,115,VALID,0.837209,
2004-11-06, 00:30:00,VALID,918.035,VALID,0,VALID,100,VALID,0,VALID,19.1246,VALID,107,VALID,0.701672,
2004-11-06, 00:31:00,VALID,918.046,VALID,0,VALID,100,VALID,-0.0849042,VALID,19.1328,VALID,103,VALID,0.679487,
2004-11-06, 00:32:00,VALID,918.05,VALID,0,VALID,100,VALID,-0.101885,VALID,19.1325,VALID,103,VALID,0.494851,
2004-11-06, 00:33:00,VALID,918.068,VALID,0,VALID,100,VALID,-0.0849042,VALID,19.1258,VALID,103,VALID,0.541211,
2004-11-06, 00:34:00,VALID,918.078,VALID,0,VALID,100,VALID,-0.0849042,VALID,19.1323,VALID,103,VALID,0.385045,
2004-11-06, 00:35:00,VALID,918.074,VALID,0,VALID,100,VALID,-0.101885,VALID,19.1323,VALID,103,VALID,0.709961,
2004-11-06, 00:36:00,VALID,918.093,VALID,0,VALID,100,VALID,-0.118866,VALID,19.1425,VALID,109,VALID,0.583212,
2004-11-06, 00:37:00,VALID,918.104,VALID,0,VALID,100,VALID,-0.101885,VALID,19.1457,VALID,125,VALID,0.587054,
2004-11-06, 00:38:00,VALID,918.11,VALID,0,VALID,100,VALID,-0.101885,VALID,19.1487,VALID,125,VALID,0.374619,
2004-11-06, 00:39:00,VALID,918.096,VALID,0,VALID,100,VALID,-0.0849042,VALID,19.1584,VALID,125,VALID,0.330602,
2004-11-06, 00:40:00,VALID,918.091,VALID,0,VALID,100,VALID,-0.118866,VALID,19.1551,VALID,125,VALID,0.262718,
2004-11-06, 00:41:00,VALID,918.08,VALID,0,VALID,100,VALID,-0.101885,VALID,19.1646,VALID,125,VALID,0.175426,
2004-11-06, 00:42:00,VALID,918.049,VALID,0,VALID,100,VALID,-0.0849042,VALID,19.1745,VALID,125,VALID,0.327553,
2004-11-06, 00:43:00,VALID,918.028,VALID,0,VALID,100,VALID,-0.0849042,VALID,19.1708,VALID,125,VALID,0.395898,
2004-11-06, 00:44:00,VALID,918.006,VALID,0,VALID,100,VALID,-0.101885,VALID,19.1773,VALID,147,VALID,0.313021,
2004-11-06, 00:45:00,VALID,917.985,VALID,0,VALID,100,VALID,-0.0849042,VALID,19.1644,VALID,247,VALID,0.36684,
2004-11-06, 00:46:00,VALID,917.969,VALID,0,VALID,100,VALID,-0.0849042,VALID,19.1708,VALID,247,VALID,0.44455,
2004-11-06, 00:47:00,VALID,917.967,VALID,0,VALID,100,VALID,-0.101885,VALID,19.1482,VALID,247,VALID,0.544513,
2004-11-06, 00:48:00,VALID,917.962,VALID,0,VALID,100,VALID,-0.101885,VALID,19.1487,VALID,243,VALID,0.574124,
2004-11-06, 00:49:00,VALID,917.966,VALID,0,VALID,100,VALID,-0.101885,VALID,19.1388,VALID,239,VALID,0.429497,
2004-11-06, 00:50:00,VALID,917.95,VALID,0,VALID,100,VALID,-0.0849042,VALID,19.1524,VALID,239,VALID,0.102493,
2004-11-06, 00:51:00,VALID,917.941,VALID,0,VALID,100,VALID,-0.0849042,VALID,19.1519,VALID,239,VALID,0.0855741,
2004-11-06, 00:52:00,VALID,917.924,VALID,0,VALID,100,VALID,-0.0849042,VALID,19.1551,VALID,239,VALID,0.0477834,
2004-11-06, 00:53:00,VALID,917.925,VALID,0,VALID,100,VALID,-0.0679233,VALID,19.1646,VALID,239,VALID,0.0078125,
2004-11-06, 00:54:00,VALID,917.91,VALID,0,VALID,100,VALID,-0.101885,VALID,19.1646,VALID,239,VALID,0.115057,
2004-11-06, 00:55:00,VALID,917.893,VALID,0,VALID,100,VALID,-0.101885,VALID,19.1812,VALID,239,VALID,0.00800305,
2004-11-06, 00:56:00,VALID,917.886,VALID,0,VALID,100,VALID,-0.101885,VALID,19.1849,VALID,239,VALID,0,
2004-11-06, 00:57:00,VALID,917.877,VALID,0,VALID,100,VALID,-0.118866,VALID,19.1845,VALID,239,VALID,0,
2004-11-06, 00:58:00,VALID,917.863,VALID,0,VALID,100,VALID,-0.118866,VALID,19.2011,VALID,239,VALID,0,
2004-11-06, 00:59:00,VALID,917.836,VALID,0,VALID,100,VALID,-0.101885,VALID,19.1807,VALID,239,VALID,0.0117188,
2004-11-06, 01:00:00,VALID,917.825,VALID,0,VALID,100,VALID,-0.101885,VALID,19.181,VALID,239,VALID,0,
2004-11-06, 01:01:00,VALID,917.789,VALID,0,VALID,100,VALID,0,VALID,19.1823,VALID,239,VALID,0,
2004-11-06, 01:02:00,VALID,917.776,VALID,0,VALID,100,VALID,0,VALID,19.1857,VALID,239,VALID,0,
2004-11-06, 01:03:00,VALID,917.758,VALID,0,VALID,100,VALID,0.0169808,VALID,19.189,VALID,239,VALID,0,
2004-11-06, 01:04:00,VALID,917.748,VALID,0,VALID,100,VALID,0,VALID,19.1992,VALID,239,VALID,0,
2004-11-06, 01:05:00,VALID,917.743,VALID,0,VALID,100,VALID,0,VALID,19.1987,VALID,239,VALID,0,
2004-11-06, 01:06:00,VALID,917.732,VALID,0,VALID,100,VALID,0.0169808,VALID,19.1987,VALID,239,VALID,0,
2004-11-06, 01:07:00,VALID,917.727,VALID,0,VALID,100,VALID,0.0339617,VALID,19.2049,VALID,239,VALID,0,
2004-11-06, 01:08:00,VALID,917.719,VALID,0,VALID,100,VALID,0.0169808,VALID,19.1952,VALID,239,VALID,0,
2004-11-06, 01:09:00,VALID,917.717,VALID,0,VALID,100,VALID,0.0169808,VALID,19.1892,VALID,239,VALID,0,
2004-11-06, 01:10:00,VALID,917.707,VALID,0,VALID,100,VALID,0,VALID,19.1857,VALID,239,VALID,0,
2004-11-06, 01:11:00,VALID,917.694,VALID,0,VALID,100,VALID,0.0169808,VALID,19.1924,VALID,239,VALID,0.257994,
2004-11-06, 01:12:00,VALID,917.693,VALID,0,VALID,100,VALID,0.0169808,VALID,19.1857,VALID,338,VALID,0.559375,
2004-11-06, 01:13:00,VALID,917.691,VALID,0,VALID,100,VALID,0,VALID,19.179,VALID,12,VALID,0.763626,
2004-11-06, 01:14:00,VALID,917.685,VALID,0,VALID,100,VALID,0.0169808,VALID,19.1793,VALID,25,VALID,0.916424,
2004-11-06, 01:15:00,VALID,917.685,VALID,0,VALID,100,VALID,0.0339617,VALID,19.1698,VALID,40,VALID,0.870384,
2004-11-06, 01:16:00,VALID,917.7,VALID,0,VALID,100,VALID,0,VALID,19.1631,VALID,40,VALID,0.52038,
2004-11-06, 01:17:00,VALID,917.696,VALID,0,VALID,100,VALID,0,VALID,19.1599,VALID,40,VALID,0.286577,
2004-11-06, 01:18:00,VALID,917.688,VALID,0,VALID,100,VALID,0,VALID,19.1664,VALID,40,VALID,0.318784,
2004-11-06, 01:19:00,VALID,917.683,VALID,0,VALID,100,VALID,-0.0169808,VALID,19.1631,VALID,40,VALID,0.252096,
2004-11-06, 01:20:00,VALID,917.666,VALID,0,VALID,100,VALID,0,VALID,19.1664,VALID,40,VALID,0.328497,
2004-11-06, 01:21:00,VALID,917.671,VALID,0,VALID,100,VALID,0,VALID,19.1669,VALID,40,VALID,0.336115,
2004-11-06, 01:22:00,VALID,917.667,VALID,0,VALID,100,VALID,-0.0169808,VALID,19.1604,VALID,40,VALID,0.442336,
2004-11-06, 01:23:00,VALID,917.682,VALID,0,VALID,100,VALID,0,VALID,19.1639,VALID,40,VALID,0.507102,
2004-11-06, 01:24:00,VALID,917.692,VALID,0,VALID,100,VALID,0,VALID,19.1599,VALID,40,VALID,0.591388,
2004-11-06, 01:25:00,VALID,917.705,VALID,0,VALID,100,VALID,0,VALID,19.1465,VALID,40,VALID,0.457304,
2004-11-06, 01:26:00,VALID,917.702,VALID,0,VALID,100,VALID,0,VALID,19.15,VALID,40,VALID,0.377907,
2004-11-06, 01:27:00,VALID,917.694,VALID,0,VALID,100,VALID,0.0169808,VALID,19.1341,VALID,40,VALID,0.292039,
2004-11-06, 01:28:00,VALID,917.699,VALID,0,VALID,100,VALID,0,VALID,19.1371,VALID,40,VALID,0.337754,
2004-11-06, 01:29:00,VALID,917.7,VALID,0,VALID,100,VALID,0,VALID,19.1497,VALID,40,VALID,0.481831,
2004-11-06, 01:30:00,VALID,917.692,VALID,0,VALID,100,VALID,0,VALID,19.1636,VALID,40,VALID,0.558321,
2004-11-06, 01:31:00,VALID,917.682,VALID,0,VALID,100,VALID,0,VALID,19.1405,VALID,40,VALID,0.620164,
2004-11-06, 01:32:00,VALID,917.676,VALID,0,VALID,100,VALID,-0.0169808,VALID,19.1542,VALID,40,VALID,0.459263,
2004-11-06, 01:33:00,VALID,917.668,VALID,0,VALID,100,VALID,0,VALID,19.1438,VALID,40,VALID,0.443892,
2004-11-06, 01:34:00,VALID,917.661,VALID,0,VALID,100,VALID,-0.0339617,VALID,19.1539,VALID,40,VALID,0.360777,
2004-11-06, 01:35:00,VALID,917.658,VALID,0,VALID,100,VALID,-0.0509425,VALID,19.1542,VALID,40,VALID,0.306463,
2004-11-06, 01:36:00,VALID,917.649,VALID,0,VALID,100,VALID,-0.0339617,VALID,19.1606,VALID,40,VALID,0.196766,
2004-11-06, 01:37:00,VALID,917.655,VALID,0,VALID,100,VALID,-0.0169808,VALID,19.1567,VALID,40,VALID,0.14926,
2004-11-06, 01:38:00,VALID,917.665,VALID,0,VALID,100,VALID,-0.0169808,VALID,19.1669,VALID,40,VALID,0.0259233,
2004-11-06, 01:39:00,VALID,917.67,VALID,0,VALID,100,VALID,-0.0509425,VALID,19.1636,VALID,40,VALID,0,
2004-11-06, 01:40:00,VALID,917.672,VALID,0,VALID,100,VALID,-0.0339617,VALID,19.1798,VALID,40,VALID,0,
2004-11-06, 01:41:00,VALID,917.674,VALID,0,VALID,100,VALID,-0.0339617,VALID,19.1763,VALID,40,VALID,0,
2004-11-06, 01:42:00,VALID,917.674,VALID,0,VALID,100,VALID,-0.0339617,VALID,19.1666,VALID,40,VALID,0,
2004-11-06, 01:43:00,VALID,917.669,VALID,0,VALID,100,VALID,0,VALID,19.1599,VALID,40,VALID,0,
2004-11-06, 01:44:00,VALID,917.661,VALID,0,VALID,100,VALID,0.0169808,VALID,19.1636,VALID,40,VALID,0,
2004-11-06, 01:45:00,VALID,917.654,VALID,0,VALID,100,VALID,0,VALID,19.1795,VALID,40,VALID,0,
2004-11-06, 01:46:00,VALID,917.652,VALID,0,VALID,100,VALID,-0.0169808,VALID,19.189,VALID,40,VALID,0,
2004-11-06, 01:47:00,VALID,917.663,VALID,0,VALID,100,VALID,-0.0169808,VALID,19.2063,VALID,40,VALID,0,
2004-11-06, 01:48:00,VALID,917.661,VALID,0,VALID,100,VALID,-0.0169808,VALID,19.2051,VALID,40,VALID,0,
2004-11-06, 01:49:00,VALID,917.667,VALID,0,VALID,100,VALID,-0.0169808,VALID,19.2247,VALID,40,VALID,0,
2004-11-06, 01:50:00,VALID,917.662,VALID,0,VALID,100,VALID,-0.0169808,VALID,19.2193,VALID,40,VALID,0,
2004-11-06, 01:51:00,VALID,917.648,VALID,0,VALID,100,VALID,0,VALID,19.2118,VALID,40,VALID,0,
2004-11-06, 01:52:00,VALID,917.637,VALID,0,VALID,100,VALID,0,VALID,19.1924,VALID,40,VALID,0.0724085,
2004-11-06, 01:53:00,VALID,917.619,VALID,0,VALID,100,VALID,-0.0169808,VALID,19.195,VALID,40,VALID,0.16061,
2004-11-06, 01:54:00,VALID,917.598,VALID,0,VALID,100,VALID,0,VALID,19.2019,VALID,40,VALID,0.237995,
2004-11-06, 01:55:00,VALID,917.59,VALID,0,VALID,100,VALID,-0.0169808,VALID,19.2056,VALID,40,VALID,0.114211,
2004-11-06, 01:56:00,VALID,917.574,VALID,0,VALID,100,VALID,-0.0169808,VALID,19.2019,VALID,40,VALID,0,
2004-11-06, 01:57:00,VALID,917.553,VALID,0,VALID,100,VALID,0,VALID,19.2088,VALID,40,VALID,0,
2004-11-06, 01:58:00,VALID,917.537,VALID,0,VALID,100,VALID,0,VALID,19.1984,VALID,40,VALID,0,
2004-11-06, 01:59:00,VALID,917.537,VALID,0,VALID,100,VALID,0,VALID,19.2123,VALID,40,VALID,0,
2004-11-06, 02:00:00,VALID,917.528,VALID,0,VALID,100,VALID,0,VALID,19.2021,VALID,40,VALID,0.1,
2004-11-06, 02:01:00,VALID,917.511,VALID,0,VALID,100,VALID,0,VALID,19.2017,VALID,40,VALID,0.155506,
2004-11-06, 02:02:00,VALID,917.507,VALID,0,VALID,100,VALID,-0.0169808,VALID,19.1853,VALID,40,VALID,0.117188,
2004-11-06, 02:03:00,VALID,917.505,VALID,0,VALID,100,VALID,0,VALID,19.1758,VALID,40,VALID,0,
2004-11-06, 02:04:00,VALID,917.495,VALID,0,VALID,100,VALID,-0.0169808,VALID,19.1828,VALID,40,VALID,0,
2004-11-06, 02:05:00,VALID,917.478,VALID,0,VALID,100,VALID,0,VALID,19.1922,VALID,40,VALID,0.107701,
2004-11-06, 02:06:00,VALID,917.462,VALID,0,VALID,100,VALID,0,VALID,19.2118,VALID,40,VALID,0.0149306,
2004-11-06, 02:07:00,VALID,917.439,VALID,0,VALID,100,VALID,-0.0169808,VALID,19.231,VALID,40,VALID,0.138477,
2004-11-06, 02:08:00,VALID,917.424,VALID,0,VALID,100,VALID,0,VALID,19.2503,VALID,40,VALID,0.307413,
2004-11-06, 02:09:00,VALID,917.412,VALID,0,VALID,100,VALID,0,VALID,19.2277,VALID,40,VALID,0.303267,
2004-11-06, 02:10:00,VALID,917.403,VALID,0,VALID,100,VALID,0,VALID,19.2084,VALID,40,VALID,0.125372,
2004-11-06, 02:11:00,VALID,917.395,VALID,0,VALID,100,VALID,-0.0169808,VALID,19.1887,VALID,40,VALID,0.391197,
2004-11-06, 02:12:00,VALID,917.379,VALID,0,VALID,100,VALID,-0.0169808,VALID,19.2051,VALID,40,VALID,0.308388,
2004-11-06, 02:13:00,VALID,917.38,VALID,0,VALID,100,VALID,0,VALID,19.2021,VALID,40,VALID,0.216146,
2004-11-06, 02:14:00,VALID,917.397,VALID,0,VALID,100,VALID,-0.0169808,VALID,19.1698,VALID,40,VALID,0.217262,
2004-11-06, 02:15:00,VALID,917.411,VALID,0,VALID,100,VALID,-0.0169808,VALID,19.1698,VALID,39,VALID,0.119284,
2004-11-06, 02:16:00,VALID,917.414,VALID,0,VALID,100,VALID,0,VALID,19.1634,VALID,39,VALID,0,
2004-11-06, 02:17:00,VALID,917.421,VALID,0,VALID,100,VALID,-0.0339617,VALID,19.1768,VALID,39,VALID,0,
2004-11-06, 02:18:00,VALID,917.43,VALID,0,VALID,100,VALID,0,VALID,19.1765,VALID,39,VALID,0,
2004-11-06, 02:19:00,VALID,917.443,VALID,0,VALID,100,VALID,0,VALID,19.1793,VALID,39,VALID,0,
2004-11-06, 02:20:00,VALID,917.435,VALID,0,VALID,100,VALID,-0.0339617,VALID,19.1862,VALID,39,VALID,0,
2004-11-06, 02:21:00,VALID,917.443,VALID,0,VALID,100,VALID,0,VALID,19.189,VALID,39,VALID,0,
2004-11-06, 02:22:00,VALID,917.445,VALID,0,VALID,100,VALID,0,VALID,19.189,VALID,39,VALID,0,
2004-11-06, 02:23:00,VALID,917.453,VALID,0,VALID,100,VALID,0,VALID,19.1992,VALID,39,VALID,0,
2004-11-06, 02:24:00,VALID,917.447,VALID,0,VALID,100,VALID,0,VALID,19.2155,VALID,39,VALID,0,
2004-11-06, 02:25:00,VALID,917.442,VALID,0,VALID,100,VALID,-0.0509425,VALID,19.2185,VALID,39,VALID,0,
2004-11-06, 02:26:00,VALID,917.44,VALID,0,VALID,100,VALID,-0.0339617,VALID,19.2185,VALID,39,VALID,0,
2004-11-06, 02:27:00,VALID,917.435,VALID,0,VALID,100,VALID,-0.0169808,VALID,19.2153,VALID,39,VALID,0,
2004-11-06, 02:28:00,VALID,917.425,VALID,0,VALID,100,VALID,0,VALID,19.228,VALID,39,VALID,0,
2004-11-06, 02:29:00,VALID,917.414,VALID,0,VALID,100,VALID,-0.0169808,VALID,19.2342,VALID,39,VALID,0,
2004-11-06, 02:30:00,VALID,917.403,VALID,0,VALID,100,VALID,0,VALID,19.2536,VALID,39,VALID,0,
2004-11-06, 02:31:00,VALID,917.404,VALID,0,VALID,100,VALID,0.0169808,VALID,19.2473,VALID,39,VALID,0,
2004-11-06, 02:32:00,VALID,917.393,VALID,0,VALID,100,VALID,0,VALID,19.2409,VALID,39,VALID,0,
2004-11-06, 02:33:00,VALID,917.388,VALID,0,VALID,100,VALID,0,VALID,19.2243,VALID,39,VALID,0.0644055,
2004-11-06, 02:34:00,VALID,917.389,VALID,0,VALID,100,VALID,0,VALID,19.2305,VALID,39,VALID,0.194754,
2004-11-06, 02:35:00,VALID,917.382,VALID,0,VALID,100,VALID,-0.0339617,VALID,19.2307,VALID,39,VALID,0.183866,
2004-11-06, 02:36:00,VALID,917.386,VALID,0.2,VALID,100,VALID,-0.0169808,VALID,19.2439,VALID,39,VALID,0.0934103,
2004-11-06, 02:37:00,VALID,917.392,VALID,0,VALID,100,VALID,-0.0339617,VALID,19.2471,VALID,39,VALID,0.145531,
2004-11-06, 02:38:00,VALID,917.387,VALID,0,VALID,100,VALID,-0.0169808,VALID,19.2414,VALID,39,VALID,0.0363948,
2004-11-06, 02:39:00,VALID,917.375,VALID,0,VALID,100,VALID,-0.0339617,VALID,19.2245,VALID,39,VALID,0,
2004-11-06, 02:40:00,VALID,917.383,VALID,0,VALID,100,VALID,-0.0169808,VALID,19.2379,VALID,39,VALID,0.0217014,
2004-11-06, 02:41:00,VALID,917.381,VALID,0,VALID,100,VALID,-0.0339617,VALID,19.2312,VALID,39,VALID,0.0678354,
2004-11-06, 02:42:00,VALID,917.37,VALID,0,VALID,100,VALID,0,VALID,19.2344,VALID,39,VALID,0,
2004-11-06, 02:43:00,VALID,917.357,VALID,0,VALID,100,VALID,-0.0169808,VALID,19.2379,VALID,39,VALID,0.0392442,
2004-11-06, 02:44:00,VALID,917.345,VALID,0,VALID,100,VALID,-0.0169808,VALID,19.26,VALID,39,VALID,0.061942,
2004-11-06, 02:45:00,VALID,917.336,VALID,0,VALID,100,VALID,-0.0169808,VALID,19.2695,VALID,39,VALID,0.0799851,
2004-11-06, 02:46:00,VALID,917.312,VALID,0,VALID,100,VALID,-0.0169808,VALID,19.2635,VALID,39,VALID,0.00284091,
2004-11-06, 02:47:00,VALID,917.291,VALID,0,VALID,100,VALID,-0.0169808,VALID,19.2697,VALID,39,VALID,0,
2004-11-06, 02:48:00,VALID,917.285,VALID,0,VALID,100,VALID,-0.0339617,VALID,19.2635,VALID,39,VALID,0.105097,
2004-11-06, 02:49:00,VALID,917.268,VALID,0,VALID,100,VALID,-0.0339617,VALID,19.2764,VALID,39,VALID,0.0546875,
2004-11-06, 02:50:00,VALID,917.251,VALID,0,VALID,100,VALID,-0.0169808,VALID,19.2859,VALID,39,VALID,0,
2004-11-06, 02:51:00,VALID,917.227,VALID,0,VALID,100,VALID,-0.0169808,VALID,19.2923,VALID,39,VALID,0,
2004-11-06, 02:52:00,VALID,917.237,VALID,0,VALID,100,VALID,-0.0169808,VALID,19.3127,VALID,39,VALID,0,
2004-11-06, 02:53:00,VALID,917.225,VALID,0,VALID,100,VALID,-0.0169808,VALID,19.3154,VALID,39,VALID,0,
2004-11-06, 02:54:00,VALID,917.201,VALID,0,VALID,100,VALID,-0.0169808,VALID,19.302,VALID,39,VALID,0.273438,
2004-11-06, 02:55:00,VALID,917.206,VALID,0,VALID,100,VALID,-0.0339617,VALID,19.3027,VALID,39,VALID,0.188834,
2004-11-06, 02:56:00,VALID,917.201,VALID,0,VALID,100,VALID,-0.0509425,VALID,19.2993,VALID,39,VALID,0.175495,
2004-11-06, 02:57:00,VALID,917.18,VALID,0,VALID,100,VALID,-0.0339617,VALID,19.2958,VALID,39,VALID,0.286328,
2004-11-06, 02:58:00,VALID,917.18,VALID,0,VALID,100,VALID,-0.0169808,VALID,19.2824,VALID,39,VALID,0.556323,
2004-11-06, 02:59:00,VALID,917.161,VALID,0,VALID,100,VALID,-0.0339617,VALID,19.2896,VALID,39,VALID,0.497917,
2004-11-06, 03:00:00,VALID,917.148,VALID,0,VALID,100,VALID,-0.0679233,VALID,19.2767,VALID,28,VALID,0.472461,
2004-11-06, 03:01:00,VALID,917.149,VALID,0,VALID,100,VALID,-0.0169808,VALID,19.2662,VALID,25,VALID,0.448946,
2004-11-06, 03:02:00,VALID,917.128,VALID,0,VALID,100,VALID,0,VALID,19.2603,VALID,25,VALID,0.546875,
2004-11-06, 03:03:00,VALID,917.138,VALID,0,VALID,100,VALID,0,VALID,19.2501,VALID,23,VALID,0.256324,
2004-11-06, 03:04:00,VALID,917.138,VALID,0,VALID,100,VALID,0,VALID,19.2478,VALID,23,VALID,0.265447,
2004-11-06, 03:05:00,VALID,917.134,VALID,0,VALID,100,VALID,-0.0169808,VALID,19.2575,VALID,22,VALID,0.483073,
2004-11-06, 03:06:00,VALID,917.119,VALID,0,VALID,100,VALID,0,VALID,19.2409,VALID,21,VALID,0.426711,
2004-11-06, 03:07:00,VALID,917.106,VALID,0,VALID,100,VALID,-0.0509425,VALID,19.231,VALID,21,VALID,0.360305,
2004-11-06, 03:08:00,VALID,917.099,VALID,0,VALID,100,VALID,0,VALID,19.2411,VALID,22,VALID,0.387695,
2004-11-06, 03:09:00,VALID,917.096,VALID,0,VALID,100,VALID,-0.0509425,VALID,19.2441,VALID,22,VALID,0.0891335,
2004-11-06, 03:10:00,VALID,917.086,VALID,0,VALID,100,VALID,-0.0169808,VALID,19.254,VALID,22,VALID,0,
2004-11-06, 03:11:00,VALID,917.086,VALID,0,VALID,100,VALID,-0.0339617,VALID,19.2545,VALID,22,VALID,0.0106534,
2004-11-06, 03:12:00,VALID,917.065,VALID,0,VALID,100,VALID,-0.0339617,VALID,19.2379,VALID,22,VALID,0,
2004-11-06, 03:13:00,VALID,917.068,VALID,0,VALID,100,VALID,0,VALID,19.2307,VALID,21,VALID,0,
2004-11-06, 03:14:00,VALID,917.059,VALID,0,VALID,100,VALID,-0.0339617,VALID,19.2404,VALID,21,VALID,0,
2004-11-06, 03:15:00,VALID,917.054,VALID,0,VALID,100,VALID,-0.0339617,VALID,19.2441,VALID,22,VALID,0,
2004-11-06, 03:16:00,VALID,917.045,VALID,0,VALID,100,VALID,0,VALID,19.2372,VALID,22,VALID,0,
2004-11-06, 03:17:00,VALID,917.049,VALID,0,VALID,100,VALID,0,VALID,19.2404,VALID,22,VALID,0,
2004-11-06, 03:18:00,VALID,917.051,VALID,0,VALID,100,VALID,0,VALID,19.2471,VALID,22,VALID,0,
2004-11-06, 03:19:00,VALID,917.048,VALID,0,VALID,100,VALID,0,VALID,19.2568,VALID,21,VALID,0.339286,
2004-11-06, 03:20:00,VALID,917.053,VALID,0,VALID,100,VALID,0,VALID,19.2667,VALID,22,VALID,0.408668,
2004-11-06, 03:21:00,VALID,917.053,VALID,0,VALID,100,VALID,-0.0169808,VALID,19.2764,VALID,22,VALID,0.34032,
2004-11-06, 03:22:00,VALID,917.064,VALID,0,VALID,100,VALID,-0.0339617,VALID,19.2863,VALID,21,VALID,0.528582,
2004-11-06, 03:23:00,VALID,917.081,VALID,0,VALID,100,VALID,-0.0169808,VALID,19.2697,VALID,22,VALID,0.562153,
2004-11-06, 03:24:00,VALID,917.096,VALID,0,VALID,100,VALID,0,VALID,19.2732,VALID,21,VALID,0.618627,
2004-11-06, 03:25:00,VALID,917.097,VALID,0,VALID,100,VALID,-0.0339617,VALID,19.2667,VALID,21,VALID,0.621982,
2004-11-06, 03:26:00,VALID,917.116,VALID,0,VALID,100,VALID,-0.0339617,VALID,19.27,VALID,21,VALID,0.692894,
2004-11-06, 03:27:00,VALID,917.121,VALID,0,VALID,100,VALID,0,VALID,19.2729,VALID,21,VALID,0.582667,
2004-11-06, 03:28:00,VALID,917.117,VALID,0,VALID,100,VALID,0,VALID,19.2729,VALID,16,VALID,0.633384,
2004-11-06, 03:29:00,VALID,917.123,VALID,0,VALID,100,VALID,-0.0169808,VALID,19.2565,VALID,16,VALID,0.500533,
2004-11-06, 03:30:00,VALID,917.115,VALID,0,VALID,100,VALID,0,VALID,19.2762,VALID,16,VALID,0.494474,
2004-11-06, 03:31:00,VALID,917.119,VALID,0,VALID,100,VALID,0,VALID,19.2628,VALID,16,VALID,0.287109,
2004-11-06, 03:32:00,VALID,917.112,VALID,0,VALID,100,VALID,-0.0169808,VALID,19.2759,VALID,16,VALID,0.297447,
2004-11-06, 03:33:00,VALID,917.101,VALID,0,VALID,100,VALID,0,VALID,19.2826,VALID,16,VALID,0.318714,
2004-11-06, 03:34:00,VALID,917.093,VALID,0,VALID,100,VALID,0,VALID,19.2764,VALID,16,VALID,0.300102,
2004-11-06, 03:35:00,VALID,917.083,VALID,0,VALID,100,VALID,-0.0169808,VALID,19.2826,VALID,16,VALID,0.112909,
2004-11-06, 03:36:00,VALID,917.08,VALID,0,VALID,100,VALID,0,VALID,19.2893,VALID,16,VALID,0.231076,
2004-11-06, 03:37:00,VALID,917.067,VALID,0,VALID,100,VALID,0,VALID,19.2824,VALID,16,VALID,0.106771,
2004-11-06, 03:38:00,VALID,917.056,VALID,0,VALID,100,VALID,0,VALID,19.2896,VALID,16,VALID,0.018532,
2004-11-06, 03:39:00,VALID,917.047,VALID,0,VALID,100,VALID,0,VALID,19.2863,VALID,16,VALID,0,
2004-11-06, 03:40:00,VALID,917.046,VALID,0,VALID,100,VALID,0,VALID,19.2794,VALID,16,VALID,0,
2004-11-06, 03:41:00,VALID,917.036,VALID,0,VALID,100,VALID,0,VALID,19.2759,VALID,16,VALID,0,
2004-11-06, 03:42:00,VALID,917.05,VALID,0,VALID,100,VALID,0,VALID,19.2866,VALID,16,VALID,0.0899346,
2004-11-06, 03:43:00,VALID,917.055,VALID,0,VALID,100,VALID,0,VALID,19.26,VALID,80,VALID,0.529297,
2004-11-06, 03:44:00,VALID,917.051,VALID,0,VALID,100,VALID,-0.0169808,VALID,19.2439,VALID,103,VALID,0.488104,
2004-11-06, 03:45:00,VALID,917.047,VALID,0,VALID,100,VALID,-0.0509425,VALID,19.2536,VALID,104,VALID,0.589286,
2004-11-06, 03:46:00,VALID,917.052,VALID,0,VALID,100,VALID,-0.0169808,VALID,19.2439,VALID,109,VALID,0.431734,
2004-11-06, 03:47:00,VALID,917.048,VALID,0,VALID,100,VALID,-0.0169808,VALID,19.2414,VALID,111,VALID,0.260099,